DLH770 LSZH-EDDF

Flight info

Callsign DLH770
Flight time N/A
Altitude 20000
Route DEGES Z1 SUDEN T164 KOVAN T163 SPESA SPESA4B
Aircraft A333/H-SDE3GHIJ2J3J5M1RVWXY/LB2D1

Departure

Time 2026-05-05 18:47
Airport Zürich Airport (LSZH)

Arrival

Time N/A
Airport Frankfurt Main Airport (EDDF)
Time Latitude Longitude Altitude Speed Heading
2026-05-05 18:06 47.46049 8.55528 1392 ft 0 kts
2026-05-05 18:35 47.46038 8.55527 1392 ft 2 kts
2026-05-05 18:35 47.46023 8.55524 1392 ft 2 kts
2026-05-05 18:35 47.46008 8.55522 1392 ft 2 kts
2026-05-05 18:36 47.45993 8.55517 1392 ft 2 kts 31°
2026-05-05 18:36 47.45982 8.55504 1392 ft 2 kts 48°
2026-05-05 18:36 47.45974 8.55487 1392 ft 2 kts 66°
2026-05-05 18:36 47.45970 8.55467 1392 ft 2 kts 84°
2026-05-05 18:37 47.45969 8.55453 1392 ft 0 kts 97°
2026-05-05 18:37 47.45970 8.55450 1392 ft 0 kts 97°
2026-05-05 18:39 47.45970 8.55451 1392 ft 0 kts 97°
2026-05-05 18:39 47.45967 8.55493 1392 ft 10 kts 96°
2026-05-05 18:40 47.45958 8.55622 1395 ft 18 kts 96°
2026-05-05 18:40 47.45944 8.55802 1399 ft 15 kts 97°
2026-05-05 18:40 47.45940 8.55851 1400 ft 4 kts 97°
2026-05-05 18:40 47.45937 8.55878 1400 ft 2 kts 98°
2026-05-05 18:41 47.45934 8.55928 1401 ft 11 kts 95°
2026-05-05 18:41 47.45924 8.56075 1403 ft 21 kts 92°
2026-05-05 18:41 47.45912 8.56279 1407 ft 23 kts 96°
2026-05-05 18:41 47.45880 8.56428 1409 ft 0 kts 126°
2026-05-05 18:42 47.45861 8.56462 1410 ft 10 kts 132°
2026-05-05 18:42 47.45806 8.56564 1412 ft 19 kts 113°
2026-05-05 18:42 47.45785 8.56782 1415 ft 27 kts 97°
2026-05-05 18:42 47.45764 8.56985 1418 ft 13 kts 117°
2026-05-05 18:43 47.45700 8.57026 1421 ft 10 kts 203°
2026-05-05 18:43 47.45670 8.56942 1420 ft 11 kts 272°
2026-05-05 18:43 47.45672 8.56889 1419 ft 0 kts 276°
2026-05-05 18:46 47.45684 8.56727 1416 ft 48 kts 276°
2026-05-05 18:46 47.45744 8.55851 1402 ft 122 kts 274°
2026-05-05 18:47 47.45847 8.54275 1452 ft 182 kts 275°
2026-05-05 18:47 47.45943 8.52421 2385 ft 191 kts 273°
2026-05-05 18:47 47.46118 8.50355 3223 ft 205 kts 276°
2026-05-05 18:47 47.46281 8.48248 3657 ft 215 kts 270°
2026-05-05 18:48 47.45917 8.46108 4178 ft 218 kts 236°
2026-05-05 18:48 47.44893 8.44474 4807 ft 219 kts 224°